Home   Weather   Reno   Past weeks

Flag for USA Past Weather in Reno, Nevada, USA — Yesterday and Last 2 Weeks

Now
45 °F

Clear.


Feels Like: 44 °F
Forecast: 35 / 66 °F
Wind: 3 mph from Southeast

Location: Reno Tahoe International Airport

Current Time: Apr 29, 2017 at 12:15:51 am

Latest Report: Apr 28, 2017 at 10:55 pm


Visibility: 10 mi

Pressure: 30.17 "Hg (25.53 "Hg at 1372m altitude)

Humidity: 30%

Dew Point: 15 °F

Location of RenoLocation

Past Weather in Reno — Graph

°F

Reno Temperature Yesterday

Maximum temperature yesterday: 54 °F (at 3:55 pm)
Minimum temperature yesterday: 37 °F (at 5:55 am)
Average temperature yesterday: 46 °F

High & Low Weather Summary for the Past Weeks

 TemperatureHumidityPressure
High74 °F (Apr 22, 12:55 pm)86% (Apr 18, 6:55 am)30.28 "Hg (Apr 18, 6:55 am)
Low33 °F (Apr 15, 5:55 am)8% (Apr 19, 12:55 pm)29.73 "Hg (Apr 24, 5:55 am)
Average51 °F43%29.97 "Hg
* Reported Apr 13 10:55 pm — Apr 28 10:55 pm, Reno, Weather by CustomWeather, © 2017

Note: Actual official high and low records may vary slightly from our data, if they occured in-between our weather recording intervals... More about our weather records

Advertising

Reno Weather History for the Previous 24 Hours

Scroll right to see more
 ConditionsComfort  
Time TempWeatherWind HumidityBarometerVisibility
10:55 pm
Fri, Apr 28
45 °FClear.3 mph30%30.17 "Hg10 mi
9:55 pm47 °FClear.3 mph24%30.16 "Hg10 mi
8:55 pm48 °FClear.5 mph27%30.14 "Hg10 mi
7:55 pm50 °FClear.8 mph25%30.12 "Hg10 mi
6:55 pm52 °FPassing clouds.14 mph21%30.11 "Hg10 mi
5:55 pm53 °FPassing clouds.14 mph21%30.09 "Hg10 mi
4:55 pm53 °FPassing clouds.14 mph20%30.07 "Hg10 mi
3:55 pm54 °FPassing clouds.13 mph20%30.06 "Hg10 mi
2:55 pm51 °FPassing clouds.6 mph24%30.08 "Hg10 mi
1:55 pm52 °FScattered clouds.10 mph25%30.08 "Hg10 mi
12:55 pm50 °FPartly sunny.13 mph28%30.07 "Hg10 mi
11:55 am50 °FPartly sunny.10 mph32%30.07 "Hg10 mi
10:55 am46 °FScattered clouds.8 mph37%30.07 "Hg10 mi
9:55 am45 °FScattered clouds.9 mph42%30.06 "Hg10 mi
8:55 am44 °FPassing clouds.8 mph45%30.05 "Hg10 mi
7:55 am40 °FPassing clouds.6 mph53%30.05 "Hg10 mi
6:55 am38 °FPassing clouds.5 mph58%30.04 "Hg10 mi
5:55 am37 °FPassing clouds.No wind57%30.02 "Hg10 mi
4:55 am39 °FClear.8 mph50%30.01 "Hg10 mi
3:55 am41 °FClear.10 mph43%30.00 "Hg10 mi
2:55 am42 °FClear.14 mph39%29.98 "Hg10 mi
1:55 am43 °FClear.15 mph40%29.97 "Hg10 mi
12:55 am45 °FPassing clouds.16 mph37%29.98 "Hg10 mi
Weather by CustomWeather, © 2017

See weather overviewHow to use our weather pages